Temp
81 80 80 80 79 79 79 79 79 78 79 79 79 78 77 79 82 82 81 82 80 80 79 79 79 79 79 79 79 79 79 79 79
80 80 79 79 79 79 79 79 79 78 78 78 78 77 77 81 81 81 81 81 80 80 79 79 79 79 79 79 79 79 79 79 79
80 80 80 81 79 79 79 78 78 78 78 77 77 75 77 81 80 81 80 78 80 80 79 78 78 78 78 78 78 79 79 78 78
79 79 80 79 78 79 79 78 78 77 77 77 76 75 75 80 81 82 82 78 79 79 78 77 78 78 78 78 77 78 78 78 77
78 79 79 79 79 78 79 77 77 77 76 76 75 74 76 79 79 81 79 78 79 78 77 77 77 77 77 77 77 77 77 77 77
80 78 78 79 77 78 77 77 76 75 75 74 73 75 79 80 80 79 77 77 78 77 77 76 76 76 76 76 76 76 75 75 75
80 78 77 77 77 77 77 75 72 74 77 76 74 78 79 79 79 79 76 77 77 77 76 76 76 76 76 75 75 75 75 74 74
79 79 79 79 77 79 76 73 75 74 75 75 77 78 78 79 79 76 75 76 76 76 75 75 75 75 75 75 75 75 74 74 74
76 77 75 76 76 74 74 73 73 73 75 77 77 77 77 78 79 76 75 76 76 76 76 75 75 74 74 74 74 74 74 74 73
72 71 72 73 74 74 72 73 72 73 74 76 76 76 76 77 77 77 74 75 75 75 75 75 75 74 74 74 73 73 73 73 73
71 70 71 71 73 72 72 72 71 71 74 73 74 74 75 76 76 77 76 74 74 75 75 75 75 74 74 73 73 73 73 72 72
71 69 70 71 73 72 71 71 71 70 71 71 73 73 74 75 74 74 75 75 72 74 74 74 74 74 74 73 72 72 72 72 72
69 68 68 68 69 70 70 69 68 68 69 69 69 70 71 72 73 73 73 74 75 73 73 74 74 74 73 73 72 72 72 71 71
69 68 66 67 67 69 69 68 69 67 67 67 67 68 68 70 71 72 71 70 71 74 71 71 72 73 73 73 72 71 71 71 70
69 67 65 66 67 66 68 68 69 68 67 66 65 66 66 68 69 71 70 69 69 71 71 73 73 72 72 72 72 72 71 70 70
68 66 65 66 66 67 69 67 65 64 66 64 63 64 67 68 68 69 70 68 69 70 71 72 73 73 70 71 72 72 71 70 70
65 65 65 64 65 66 66 65 65 64 67 65 64 60 64 67 68 69 67 66 67 69 69 71 71 70 71 69 67 68 70 70 69
63 66 64 67 67 65 66 66 66 63 63 68 66 59 60 63 65 65 65 65 63 65 64 67 68 69 70 68 67 66 67 68 68
60 61 64 61 66 66 66 68 68 66 63 64 66 67 68 63 56 60 60 66 62 61 65 67 68 65 67 63 62 64 65 65 66
58 60 60 61 65 67 68 67 67 69 67 66 64 62 61 65 60 54 54 55 59 58 63 66 63 66 65 65 63 62 64 64 64
MSLP
1017.89 1018.06 1018.16 1018.23 1018.42 1018.58 1018.68 1018.66 1018.78 1018.79 1018.84 1018.95 1019.02 1019.12 1019.16 1018.91 1018.85 1018.81 1018.89 1018.83 1018.80 1018.75 1018.72 1018.60 1018.45 1018.26 1018.11 1017.90 1017.72 1017.44 1017.18 1016.89 1016.59
1018.18 1018.34 1018.44 1018.54 1018.77 1018.87 1019.07 1019.13 1019.10 1019.27 1019.41 1019.45 1019.50 1019.69 1019.71 1019.33 1019.35 1019.32 1019.22 1019.36 1019.31 1019.24 1019.18 1019.22 1019.10 1018.94 1018.74 1018.55 1018.42 1018.14 1018.01 1017.68 1017.34
1018.33 1018.53 1018.66 1018.73 1019.03 1019.22 1019.33 1019.56 1019.64 1019.78 1019.92 1019.93 1020.02 1020.30 1020.24 1019.96 1020.01 1019.99 1020.03 1020.04 1019.87 1019.83 1019.80 1019.79 1019.74 1019.61 1019.56 1019.43 1019.31 1018.94 1018.78 1018.65 1018.38
1018.54 1018.65 1018.75 1019.02 1019.26 1019.42 1019.70 1019.97 1020.12 1020.19 1020.42 1020.49 1020.59 1020.65 1020.73 1020.57 1020.64 1020.53 1020.66 1020.81 1020.61 1020.66 1020.61 1020.45 1020.38 1020.37 1020.28 1020.27 1020.18 1019.90 1019.70 1019.52 1019.30
1018.64 1018.80 1019.01 1019.18 1019.46 1019.72 1020.01 1020.38 1020.58 1020.68 1020.95 1021.09 1021.13 1021.10 1021.06 1021.19 1021.20 1021.28 1021.59 1021.46 1021.33 1021.34 1021.37 1021.38 1021.19 1021.13 1021.02 1020.98 1020.86 1020.79 1020.67 1020.46 1020.30
1018.69 1018.87 1019.18 1019.32 1019.79 1019.94 1020.24 1020.67 1021.04 1021.20 1021.52 1021.78 1021.73 1021.42 1021.48 1021.59 1021.74 1022.07 1022.32 1022.26 1022.21 1022.20 1022.18 1022.16 1022.13 1022.04 1021.93 1021.90 1021.76 1021.65 1021.53 1021.54 1021.29
1018.70 1018.97 1019.28 1019.57 1019.96 1020.27 1020.54 1020.98 1021.57 1021.75 1021.84 1022.16 1022.09 1021.90 1022.02 1022.15 1022.33 1022.70 1022.84 1022.83 1022.87 1022.95 1023.03 1022.91 1022.88 1022.84 1022.72 1022.62 1022.58 1022.42 1022.36 1022.28 1022.38
1018.94 1019.03 1019.28 1019.61 1020.01 1020.33 1021.01 1021.62 1021.76 1022.01 1022.24 1022.38 1022.38 1022.37 1022.46 1022.70 1022.83 1023.33 1023.34 1023.39 1023.50 1023.56 1023.67 1023.64 1023.60 1023.56 1023.52 1023.42 1023.34 1023.17 1023.06 1022.99 1022.95
1019.04 1019.23 1019.69 1020.02 1020.31 1020.83 1021.37 1021.76 1022.11 1022.38 1022.55 1022.65 1022.71 1022.85 1022.95 1023.19 1023.26 1023.88 1023.89 1023.87 1023.96 1024.03 1024.15 1024.17 1024.21 1024.21 1024.19 1024.13 1024.07 1024.04 1023.83 1023.73 1023.61
1019.30 1019.50 1019.83 1020.36 1020.76 1021.14 1021.70 1022.04 1022.31 1022.62 1022.91 1023.05 1023.20 1023.39 1023.58 1023.68 1023.73 1024.12 1024.39 1024.40 1024.44 1024.45 1024.58 1024.64 1024.67 1024.75 1024.69 1024.69 1024.68 1024.55 1024.54 1024.41 1024.32
1019.26 1019.66 1019.90 1020.46 1020.88 1021.47 1021.93 1022.28 1022.68 1023.01 1023.17 1023.51 1023.72 1023.94 1024.19 1024.33 1024.43 1024.38 1024.78 1024.90 1024.92 1025.01 1025.07 1025.09 1025.22 1025.27 1025.30 1025.23 1025.24 1025.11 1025.07 1024.98 1024.91
1019.02 1019.57 1020.03 1020.51 1020.99 1021.70 1022.29 1022.74 1023.15 1023.48 1023.80 1023.98 1024.24 1024.47 1024.68 1024.88 1025.09 1025.19 1025.19 1025.41 1025.52 1025.56 1025.59 1025.64 1025.71 1025.78 1025.82 1025.79 1025.73 1025.77 1025.64 1025.64 1025.59
1018.87 1019.57 1020.18 1020.78 1021.39 1021.74 1022.30 1022.89 1023.44 1023.88 1024.30 1024.63 1024.93 1025.21 1025.39 1025.49 1025.73 1025.89 1025.90 1026.05 1026.00 1026.10 1026.07 1026.19 1026.14 1026.12 1026.20 1026.23 1026.22 1026.22 1026.20 1026.18 1026.10
1018.76 1019.49 1020.24 1020.99 1021.47 1021.75 1022.29 1023.08 1023.42 1024.10 1024.76 1025.18 1025.51 1025.72 1025.88 1025.95 1026.17 1026.25 1026.47 1026.62 1026.69 1026.57 1026.75 1026.65 1026.61 1026.58 1026.57 1026.58 1026.62 1026.71 1026.74 1026.70 1026.73
1018.83 1019.58 1020.22 1021.00 1021.51 1022.09 1022.43 1023.09 1023.71 1024.24 1024.80 1025.42 1026.00 1026.27 1026.46 1026.48 1026.57 1026.60 1026.86 1026.97 1027.04 1027.05 1027.11 1027.16 1027.11 1027.08 1027.06 1026.98 1026.94 1027.05 1027.13 1027.10 1027.08
1018.80 1019.52 1020.29 1020.92 1021.36 1021.83 1022.33 1023.18 1023.89 1024.76 1025.19 1025.53 1026.30 1026.58 1026.74 1026.77 1026.99 1027.06 1027.05 1027.18 1027.21 1027.30 1027.39 1027.46 1027.55 1027.49 1027.70 1027.66 1027.42 1027.34 1027.46 1027.57 1027.48
1018.87 1019.44 1020.13 1020.75 1021.50 1021.99 1022.45 1023.09 1023.82 1024.72 1025.05 1025.18 1025.71 1026.28 1026.80 1026.94 1027.08 1027.14 1027.39 1027.62 1027.61 1027.42 1027.65 1027.80 1027.95 1028.05 1027.98 1028.22 1028.35 1028.04 1027.71 1027.68 1027.68
1018.78 1019.35 1019.99 1020.62 1021.04 1021.53 1022.24 1022.78 1023.20 1024.00 1025.02 1025.02 1024.87 1025.64 1025.56 1026.38 1026.83 1027.08 1027.30 1027.48 1028.00 1027.82 1027.94 1028.04 1027.98 1027.99 1028.34 1028.30 1028.53 1028.68 1028.37 1028.02 1027.99
1018.82 1019.45 1020.16 1020.91 1021.23 1021.30 1021.87 1022.48 1022.87 1023.12 1024.23 1024.96 1025.04 1024.83 1025.07 1025.57 1026.53 1027.19 1027.21 1027.46 1027.63 1027.98 1027.89 1027.87 1027.99 1028.18 1028.34 1028.38 1028.41 1028.66 1028.64 1028.49 1028.21
1019.70 1019.79 1020.20 1020.49 1021.01 1021.43 1021.70 1022.18 1022.68 1023.10 1023.45 1023.94 1024.66 1025.07 1025.45 1025.62 1026.00 1026.82 1027.40 1027.70 1027.68 1027.95 1027.73 1027.75 1027.92 1027.83 1028.37 1028.56 1028.71 1028.72 1028.66 1028.65 1028.50
Wind_Speed
13 13 13 15 16 16 16 16 17 17 18 18 18 18 16 15 15 15 15 15 22 23 24 23 23 24 24 25 26 27 28 28 27
13 12 15 15 16 17 17 16 18 18 19 19 20 19 16 15 14 15 16 16 21 22 24 24 24 25 26 24 25 27 29 28 27
13 13 13 13 16 16 16 16 17 18 18 19 20 18 14 14 14 15 14 18 22 23 24 24 24 25 26 26 26 27 29 28 28
14 13 12 13 14 17 16 16 17 18 19 19 19 19 16 14 11 12 11 18 21 23 24 24 24 24 25 25 26 27 28 28 29
15 13 14 13 15 18 16 17 16 18 17 17 17 17 16 13 12 11 10 16 21 21 22 23 24 24 25 25 25 26 26 26 27
14 11 14 14 18 18 19 17 16 17 16 15 15 13 9 11 10 8 16 19 21 22 22 22 23 23 23 24 25 25 26 26 26
12 12 15 18 17 18 18 17 14 10 7 7 10 8 11 10 10 9 17 20 21 21 21 22 22 23 23 23 24 24 25 26 26
9 8 9 10 15 10 11 8 6 9 8 7 9 11 11 8 9 12 16 19 20 21 21 21 22 22 23 23 23 24 25 25 25
9 7 7 8 8 10 8 6 9 10 10 11 12 12 10 8 8 11 15 18 19 20 20 21 21 21 22 23 23 23 24 24 25
7 7 7 7 8 8 8 9 9 10 11 11 12 12 12 12 8 8 14 16 18 19 19 20 20 20 21 21 22 22 22 23 23
9 8 8 8 8 8 8 9 9 9 10 11 11 11 11 11 11 9 10 14 16 17 18 18 19 19 20 20 20 21 21 21 22
12 9 8 8 9 11 9 9 9 8 8 11 10 9 11 10 10 9 8 10 12 14 16 17 17 18 18 19 19 19 20 20 21
11 9 8 8 9 9 9 9 8 8 8 8 7 7 8 9 9 8 7 6 6 9 12 14 15 16 16 17 17 17 18 18 19
11 10 8 10 8 9 10 8 10 9 8 7 6 5 6 7 6 8 7 7 6 5 10 9 10 12 13 14 15 16 16 17 18
11 9 10 10 9 8 9 11 8 9 9 8 6 5 4 4 4 5 4 5 5 4 5 4 6 9 10 12 13 13 14 14 15
12 9 10 9 10 12 13 11 12 7 8 7 5 4 3 4 3 2 3 4 3 3 3 3 3 4 8 9 9 11 12 13 14
9 12 10 10 9 12 14 13 10 5 8 5 5 4 3 2 2 2 1 1 1 2 1 1 2 3 3 5 7 8 9 9 10
7 10 9 11 10 11 13 12 12 9 5 9 3 4 4 4 3 5 3 4 2 2 1 2 2 2 1 2 3 4 5 6 7
6 7 8 8 7 12 12 12 10 11 11 5 2 1 3 4 3 2 3 4 4 4 3 4 3 3 3 2 1 1 2 3 4
5 6 7 8 7 8 14 14 11 10 10 8 4 2 2 2 2 2 1 1 2 2 3 3 4 3 4 4 2 3 3 2 0
Wind_Direction
126 124 113 107 108 103 99 98 98 99 97 98 95 87 82 86 82 80 72 69 70 69 67 65 65 65 63 62 62 60 56 54 54
131 129 116 111 114 109 102 100 99 97 97 96 91 83 80 86 83 81 80 79 73 69 65 64 64 64 64 61 60 62 61 56 54
137 133 128 128 118 114 108 105 103 102 99 94 88 82 76 83 79 78 78 73 79 74 69 64 63 61 60 62 61 62 62 59 58
142 140 139 127 122 116 109 105 108 105 99 94 91 84 79 81 75 76 75 75 75 70 68 66 66 65 63 62 60 59 60 59 58
148 147 138 139 133 122 118 110 109 104 100 96 93 85 83 82 83 77 73 77 76 75 72 69 67 65 65 63 63 62 61 57 56
151 144 141 131 134 124 118 108 107 104 97 93 87 89 89 86 83 80 87 87 86 85 83 80 75 72 68 65 63 61 60 59 57
153 149 142 130 133 122 115 109 102 107 111 103 95 96 99 92 96 93 90 90 87 83 81 79 77 75 73 71 68 68 66 65 61
154 153 144 139 134 127 114 120 114 119 119 113 109 107 101 101 100 93 93 93 90 87 84 81 78 77 74 72 70 68 67 65 64
155 150 137 135 135 129 126 125 124 119 117 118 114 111 109 108 105 99 98 97 94 92 88 84 80 77 74 72 70 67 67 66 64
150 140 140 136 135 131 128 131 128 124 121 118 115 111 110 109 105 104 96 97 97 94 91 88 84 81 78 75 72 71 68 67 65
152 148 149 143 140 139 137 136 132 125 125 118 116 112 108 107 106 106 100 95 96 94 91 88 85 81 77 75 73 72 69 67 66
152 151 153 147 143 137 131 129 129 124 121 118 115 111 110 106 102 97 99 97 85 92 92 89 83 80 77 75 72 69 68 65 62
147 149 150 143 143 143 140 140 133 126 125 121 108 104 102 102 96 92 92 89 94 89 91 89 88 85 81 78 73 69 66 63 61
149 154 146 147 149 151 146 144 139 136 126 117 111 105 104 103 111 106 93 82 78 90 72 76 86 87 84 81 75 69 64 61 58
149 149 147 150 149 150 151 141 140 139 136 121 104 96 90 100 106 108 105 99 91 88 87 87 92 83 79 76 76 70 65 63 60
148 147 147 154 157 159 156 146 142 130 136 123 106 85 81 112 115 123 134 130 113 123 108 93 87 89 65 59 64 68 64 59 55
142 148 156 152 148 157 159 153 145 126 167 144 130 152 161 196 189 187 207 213 174 167 125 107 90 79 83 67 50 50 66 70 65
133 151 151 163 165 163 167 164 162 154 178 177 141 152 194 167 176 207 216 226 270 242 289 237 210 186 136 99 75 49 58 66 62
127 129 153 145 171 165 172 174 172 159 173 175 214 210 138 183 174 208 201 210 226 253 239 253 256 247 237 199 160 278 96 67 66
109 150 147 150 172 177 177 177 179 182 173 179 155 126 95 85 121 153 197 267 204 251 263 264 251 233 243 244 238 273 206 185 121